Regional Weather Roundup
Issued by NWS Upton, NY

Current Version | Previous Version | Text Only | Print | Product List | Glossary On
Versions: 1 2 3 4 5 6 7 8 9 10 11 12 13 14 15 16 17 18 19 20 21 22 23 24 25 26 27 28 29 30 31 32 33 34 35 36 37 38 39 40 41 42 43 44 45 46 47 48 49 50
000
ASUS41 KOKX 232108
RWROKX

REGIONAL WEATHER ROUNDUP
NATIONAL WEATHER SERVICE NEW YORK NY
500 PM EDT SAT MAY 23 2015

NOTE: "FAIR" INDICATES FEW OR NO CLOUDS BELOW 12,000 FEET WITH NO
SIGNIFICANT WEATHER AND/OR OBSTRUCTIONS TO VISIBILITY.

NYZ071-072-176-178-NJZ106-104-232200-
NEW YORK CITY METRO AREA


CITY           SKY/WX    TMP DP  RH WIND       PRES   REMARKS
CENTRAL PARK   SUNNY     69  28  21 MISG      30.37F
LAGUARDIA APRT SUNNY     68  22  17 VRB3      30.33F
KENNEDY INTL   SUNNY     64  38  38 S22       30.36F
NEWARK/LIBERTY MOSUNNY   71  25  17 W10       30.34F
BRNX BOT. GARD   N/A     68  27  21 SW8       30.34F
TETERBORO      SUNNY     69  24  18 VRB5      30.32F
$$

NYZ177-179-078>081-232200-
LONG ISLAND NEW YORK

CITY           SKY/WX    TMP DP  RH WIND       PRES   REMARKS
FARMINGDALE    SUNNY     65  31  28 S10G16    30.35F
ISLIP          SUNNY     62  31  31 SW12      30.34F
SHIRLEY        SUNNY     61  32  33 SW10      30.36F
WESTHAMPTON    SUNNY     59  37  44 SW10      30.37F
MONTAUK POINT    N/A     59  40  49 SW8       30.35F
$$

NYZ052-065-067-232200-
HUDSON VALLEY

CITY           SKY/WX    TMP DP  RH WIND       PRES   REMARKS
WHITE PLAINS   SUNNY     66  28  24 NW10      30.33F
NEWBURGH       SUNNY     64  32  29 W8        30.33F
MONTGOMERY     SUNNY     68  31  25 NW10      30.32F
POUGHKEEPSIE   SUNNY     67  27  22 W5G16     30.31F
ALBANY         SUNNY     64  27  24 NW15      30.33F
$$

NJZ001-105-106-008-010-013-015-019>022-104-232200-
NEW JERSEY

CITY           SKY/WX    TMP DP  RH WIND       PRES   REMARKS
NEWARK/LIBERTY MOSUNNY   71  25  17 W10       30.34F
TETERBORO      SUNNY     69  24  18 VRB5      30.32F
CALDWELL       SUNNY     68  23  18 VRB7      30.34F
MORRISTOWN     SUNNY     70  25  18 W10G17    30.34F
SOMERVILLE     SUNNY     70  27  20 VRB3      30.33F
SUSSEX         SUNNY     68  25  19 W8        30.35S
ANDOVER          N/A     69  27  20 CALM      30.34F
TRENTON        SUNNY     69  27  20 N5        30.36F
MILLVILLE      SUNNY     68  32  26 VRB3      30.39S
ATLANTIC CITY  SUNNY     67  42  40 VRB7      30.37F
WRIGHTSTOWN    SUNNY     68  28  22 VRB6      30.34F
TOMS RIVER     SUNNY    N/A N/A N/A S13G18    30.37S
BELMAR         SUNNY     63  37  39 S8        30.37F
$$

PAZ047>061-062-071-232200-
EASTERN PENNSYLVANIA

CITY           SKY/WX    TMP DP  RH WIND       PRES   REMARKS
PHILADELPHIA   SUNNY     70  28  21 SW13      30.37F
ALLENTOWN      SUNNY     70  27  20 SW6G17    30.35F
SCRANTON       SUNNY     67  28  23 SW7       30.34F
$$

CTZ002-004>006-009-010-012-RIZ004-006-007-MAZ004-011-015-232200-
SOUTHERN NEW ENGLAND
 IN CT

CITY           SKY/WX    TMP DP  RH WIND       PRES   REMARKS
BRADLEY INTL   SUNNY     67  23  19 W15       30.30F
HARTFORD       SUNNY     65  24  21 W14       30.31F
DANBURY        SUNNY     64  27  24 W9        30.34F
WTRBRY/OXFORD  SUNNY     63  28  27 NW9       30.34F
BRIDGEPORT     SUNNY     62  33  33 S13       30.34F
MERIDEN        SUNNY     66  24  20 NW10      30.32F
NEW HAVEN      SUNNY     60  35  39 S12       30.33F
CHESTER        FAIR      61  32  33 SW9       30.33F
GROTON         SUNNY     57  34  41 SW17G23   30.32F
WILLIMANTIC    SUNNY     64  23  21 W12G17    30.31F

 IN RI

CITY           SKY/WX    TMP DP  RH WIND       PRES   REMARKS
PROVIDENCE     SUNNY     65  23  20 W9G21     30.29F
BLOCK ISLAND   SUNNY     55  36  47 SW18      30.34S
WESTERLY       SUNNY     59  31  34 SW14G24   30.33F

 IN MA

CITY           SKY/WX    TMP DP  RH WIND       PRES   REMARKS
BOSTON         SUNNY     64  21  19 W14G22    30.26F
WORCESTER      SUNNY     61  22  22 W14G22    30.29F
WESTFIELD      SUNNY     66  20  17 W12G20    30.30F
PROVINCETOWN   SUNNY     57  30  35 SW9       30.29F
NANTUCKET      SUNNY     55  32  41 W20       30.33F
$$

ANZ330-335-338-340-345-350-353-355-232200-
COASTAL MARINE OBSERVATIONS


STATION/POSITION TIME  SKY/WX   TEMP    WIND        PRES    VSBY  WAVE
                                AIR SEA DIR/SP/G                  HT/PER
                 (UTC)          (F)     (DEG/KT/KT) (MB)    (MI)  (FT/S)
NY HARB ENTRANCE 2050            55 56  200/ 16/ 17 1028.1          1/ 9
4S FIRE IS       2003               53                N/A           2/ 8
20S FIRE ISLAND  2050            54 56  210/ 10/ 12 1028.6          2/ 8
GREAT SOUTH BAY  2000            57 64  210/ 12/ 17   N/A
23SW MTP         2050            53 53  240/ 14/ 16 1028.0          2/ 6
HUDSON CANYON    NOT AVBL
KINGS POINT      2000            64 54  240/  2/  2 1027.2
CENTRAL LI SOUND 2000            55 52  230/ 10/ 12   N/A
EASTERN LI SOUND 2000            53     250/ 16/ 19   N/A
ROBBINS REEF     2000            64     270/  7/ 10 1026.8
$$


>>>>>>>>>>>>>>>>>>>>>>>>>>>> KEY <<<<<<<<<<<<<<<<<<<<<<<<<<<
>                                                          <
>     SKY/WX - SKY CONDITION/PRESENT WEATHER               <
>     TMP    - TEMPERATURE IN FAHRENHEIT                   <
>     DP     - DEWPOINT IN FAHRENHEIT                      <
>     RH     - RELATIVE HUMIDITY IN PERCENT                <
>     WIND   - DIRECTION AND SPEED IN MPH                  <
>     PRES   - MEAN SEA LEVEL PRESSURE IN INCHES OF HG     <
>     WCI    - WIND CHILL INDEX                            <
>     VSB    - VISIBILITY IN MILES                         <
>     HX     - HEAT INDEX                                  <
>     TC     - TEMPERATURE IN CELSIUS                      <
>     VRB    - VARIABLE WIND DIRECTION                     <
>                                                          <
>>>>>>>>>>>>>>>>>>>>>>>>>>>> KEY <<<<<<<<<<<<<<<<<<<<<<<<<<<





USA.gov is the U.S. government's official web portal to all federal, state and local government web resources and services.